Home > Weather > Langley > Past weeks

Flag for Canada Past Weather in Langley, British Columbia, Canada — Yesterday and Last 2 Weeks

Now
71 °F

Mild.


Feels Like: 76 °F
Forecast: 55 / 76 °F
Wind: 3 mph from Southwest

Location: P. Meadows Coastal Station

Current Time: Jul 23, 2016 at 6:15:31 PM

Latest Report: Jul 23, 2016 at 5:00 PM


Visibility: N/A

Pressure: 30.23 "Hg

Humidity: 55%

Dew Point: 54 °F

Location of LangleyLocation

Past Weather in Langley — Graph

°F

Langley Temperature Yesterday

Maximum temperature yesterday: 72 °F (at 4:00 PM)
Minimum temperature yesterday: 60 °F (at 7:00 AM)
Average temperature yesterday: 66 °F

High & Low Weather Summary for the Past Weeks

 TemperatureHumidityPressure
High83 °F (Jul 21, 4:00 PM)99% (Jul 17, 5:00 AM)30.26 "Hg (Jul 17, 5:00 AM)
Low54 °F (Jul 23, 6:00 AM)38% (Jul 21, 6:00 PM)29.82 "Hg (Jul 9, 12:00 AM)
Average65 °F73%30.07 "Hg
* Reported Jul 8 5:00 PM — Jul 23 5:00 PM, Langley, Weather by CustomWeather, © 2016

Note: Actual official high and low records may vary slightly from our data, if they occured in-between our weather recording intervals... More about our weather records

Advertising

Langley Weather History for the Previous 24 Hours

Scroll right to see more
 ConditionsComfort  
Time TempWeatherWind HumidityBarometerVisibility
5:00 PM
Sat, Jul 23
71 °FMild.3 mph55%30.23 "HgN/A
4:00 PM72 °FMild.3 mph55%30.23 "HgN/A
3:00 PM73 °FMild.5 mph53%30.24 "HgN/A
2:00 PM72 °FMild.3 mph57%30.24 "HgN/A
1:00 PM70 °FMild.5 mph62%30.24 "HgN/A
12:00 PM68 °FMild.3 mph62%30.25 "HgN/A
11:00 AM67 °FMild.2 mph64%30.26 "HgN/A
10:00 AM66 °FMild.3 mph66%30.25 "HgN/A
9:00 AM64 °FMild.3 mph70%30.25 "HgN/A
8:00 AM61 °FCool.5 mph77%30.24 "HgN/A
7:00 AM60 °FCool.1 mph84%30.24 "HgN/A
6:00 AM54 °FCool.No wind89%30.24 "HgN/A
5:00 AM56 °FCool.No wind89%30.24 "HgN/A
4:00 AM57 °FCool.No wind87%30.24 "HgN/A
3:00 AM56 °FCool.1 mph85%30.24 "HgN/A
2:00 AM58 °FCool.2 mph83%30.24 "HgN/A
1:00 AM60 °FCool.2 mph78%30.25 "HgN/A
12:00 AM61 °FCool.3 mph75%30.25 "HgN/A
11:00 PM
Fri, Jul 22
63 °FMild.5 mph71%30.24 "HgN/A
10:00 PM64 °FMild.3 mph69%30.24 "HgN/A
9:00 PM65 °FMild.5 mph66%30.23 "HgN/A
8:00 PM68 °FMild.5 mph61%30.22 "HgN/A
7:00 PM71 °FMild.7 mph54%30.20 "HgN/A
6:00 PM72 °FMild.2 mph55%30.20 "HgN/A
Weather by CustomWeather, © 2016

See weather overviewHow to use our weather pages